Location: S�deilles
(46.7500°N, 6.9329°E)
Time: 12:01:58
(UTC+00:00)

Cosmos 1703 Rocket - Pass Details

Date: 08 March 2021
Orbit: 605 x 634 km, 82.5° (Epoch: 22 April)

Event Time Altitude Azimuth Distance (km) Brightness Sun altitude
Rises 18:37:00 0° 347° (NNW) 2,902 7.3 -12.6°
Reaches altitude 10° 18:39:16 10° 343° (NNW) 1,987 6.5 -13.0°
Maximum altitude 18:43:34 57° 266° (W) 723 4.2 -13.7°
Drops below altitude 10° 18:47:49 10° 187° (S) 1,956 6.1 -14.4°
Sets 18:50:02 0° 183° (S) 2,851 6.9 -14.8°
